Wind_Speed
23 23 23 21 20 19 19 18 16 16 17 18 18 19 19 18 18 17 17 17 17 18 20 21 21 21 21 19 18 16 15 15 14 14 13 13 13 12 12 13 14 12 10 8 8 10 12 13 13 14 14 13 12 12 11 9 8 8 8 9 8 8 8 8 8 8 8 8 8
23 23 23 22 21 21 20 19 18 18 19 19 19 19 19 18 17 17 17 18 19 20 21 22 22 21 20 19 18 17 16 14 14 13 13 13 13 13 14 14 15 15 15 14 12 11 11 12 13 15 16 15 14 13 12 10 9 8 9 10 10 11 10 9 10 9 8 7 8
24 23 23 23 23 23 22 21 20 21 21 20 19 19 19 18 17 17 17 19 21 21 21 22 22 21 20 19 19 17 16 15 14 13 13 12 12 13 13 14 14 15 16 16 15 14 14 13 14 16 16 16 16 15 14 11 10 9 10 11 11 11 10 10 10 9 7 7 8
24 23 23 23 23 23 23 22 22 22 21 20 20 19 19 19 18 18 19 21 22 22 22 23 22 21 20 20 19 18 16 15 14 13 12 12 11 12 12 13 12 13 14 14 14 14 14 15 16 16 16 16 16 16 14 12 10 9 10 10 11 11 11 11 10 8 7 7 8
24 24 23 23 23 23 23 23 23 22 22 21 20 20 19 19 19 20 21 22 22 22 23 23 22 21 20 19 18 17 16 15 14 13 12 12 11 11 11 12 12 13 13 13 13 13 14 15 16 16 16 16 16 16 14 12 11 10 9 9 10 11 10 9 7 6 6 7 7
24 24 23 23 23 23 23 23 23 22 22 21 20 20 20 20 20 20 21 22 23 23 24 23 22 22 20 19 18 17 16 15 13 13 13 13 12 12 12 12 13 13 13 13 13 14 14 15 16 16 16 16 16 16 14 12 11 11 9 8 8 8 7 5 4 4 5 6 7
24 24 24 23 24 24 24 24 23 22 22 21 20 20 21 20 20 21 22 22 23 24 24 24 24 23 21 19 18 17 16 15 14 13 12 13 13 12 12 12 13 14 14 15 15 14 14 14 15 15 15 15 15 15 14 13 12 12 11 9 8 7 6 5 5 6 6 7 8
24 24 24 24 24 24 24 24 23 23 22 21 21 21 21 21 21 21 22 22 22 23 25 26 25 24 22 20 18 17 16 16 15 13 13 12 13 13 13 12 12 13 14 14 15 14 14 13 14 14 14 15 15 14 14 13 13 14 13 11 10 9 9 8 8 8 7 7 8
24 24 24 24 24 25 25 24 23 22 22 21 21 21 21 21 21 22 22 22 22 24 25 26 26 25 22 20 18 17 16 16 15 14 13 12 13 13 14 14 13 13 13 13 13 13 13 13 13 13 14 14 14 14 14 13 14 14 14 12 12 12 11 10 9 8 7 7 8
24 24 24 24 25 25 25 24 23 22 21 21 21 21 21 21 22 23 23 22 23 24 26 27 27 26 23 21 19 17 16 16 15 15 14 13 13 14 14 15 15 14 14 13 13 13 13 14 15 15 14 15 15 14 14 13 13 14 14 13 13 13 12 10 8 7 7 7 8
24 24 24 24 25 26 25 24 23 22 22 21 21 22 22 22 23 24 24 23 24 24 25 26 26 26 24 22 20 18 17 16 15 15 15 15 14 14 14 15 15 15 16 15 15 16 16 17 17 17 16 15 15 14 14 13 12 13 14 14 14 12 11 9 7 5 5 7 9
24 24 24 24 25 26 25 25 24 22 22 21 22 22 23 24 25 25 25 24 24 24 24 25 26 26 25 23 21 19 18 17 15 15 15 15 15 15 15 15 15 15 16 17 18 18 19 19 19 19 18 17 16 15 13 12 11 12 13 14 13 11 9 8 6 4 5 7 9
23 23 24 24 25 26 26 25 24 23 22 22 22 23 24 25 25 25 25 24 24 24 24 24 25 25 25 24 22 20 19 17 16 15 14 14 15 15 15 15 15 15 17 18 19 18 18 18 18 18 18 17 16 15 13 12 11 10 12 14 12 10 8 7 6 5 6 7 9
23 23 23 24 25 26 26 25 24 23 22 22 22 23 24 25 26 26 25 25 24 24 24 24 24 24 24 24 23 22 20 18 16 15 14 14 14 15 15 15 16 16 18 19 18 17 16 15 15 16 17 17 16 15 13 11 10 10 12 14 13 11 10 9 8 7 6 7 8
23 23 23 24 25 26 26 25 24 24 23 22 23 24 25 26 27 26 26 25 25 24 23 23 23 23 24 24 24 23 20 18 17 16 15 15 15 15 15 16 16 16 17 18 17 16 14 13 12 13 14 14 14 14 13 11 9 10 11 14 14 13 11 10 9 8 7 7 8
23 23 23 24 25 26 26 25 24 24 23 23 24 25 26 27 27 27 26 25 25 24 23 23 23 23 24 24 24 23 21 19 17 16 15 15 16 16 16 16 16 16 16 17 16 15 13 12 11 11 11 12 13 14 13 11 9 9 11 14 14 14 12 11 9 8 7 8 9
23 22 23 24 25 26 26 25 24 23 23 23 24 25 26 27 28 27 26 25 24 24 24 23 23 23 24 24 24 24 22 20 18 17 16 15 15 15 16 16 16 16 16 16 15 14 12 11 11 10 10 11 12 14 13 11 9 9 10 13 14 14 12 10 8 7 7 8 9
22 22 23 24 25 26 26 25 24 23 23 24 25 26 27 27 27 27 26 25 24 24 24 23 23 23 23 24 25 24 22 21 19 18 16 15 14 15 15 16 16 16 15 15 14 13 12 11 11 10 10 11 12 13 13 11 9 8 10 12 14 13 11 10 7 6 6 8 9
22 22 23 24 26 26 26 25 24 23 23 24 26 27 28 28 27 27 26 25 24 23 23 23 23 23 23 23 24 24 23 21 20 18 16 14 14 14 15 15 16 16 15 14 13 12 12 11 11 10 10 11 12 13 13 11 9 8 9 12 13 13 11 9 7 6 7 8 9
22 22 23 25 26 27 26 24 23 23 24 25 27 28 28 28 27 26 25 25 24 24 23 23 23 23 23 23 24 24 23 22 19 18 16 15 14 14 15 16 16 15 14 13 13 12 11 11 11 11 11 12 12 13 13 11 8 7 9 12 13 13 11 10 8 7 7 8 9
22 22 23 25 26 26 25 24 23 23 24 26 27 28 28 28 27 26 25 25 24 24 23 23 23 23 23 23 23 24 23 22 20 18 16 15 15 15 15 16 16 15 14 13 13 12 12 11 11 11 11 12 13 13 13 11 8 7 8 12 13 13 12 10 9 8 7 8 9
22 22 24 25 26 26 25 23 23 24 25 27 28 28 28 27 26 26 25 25 25 24 23 23 23 23 22 23 23 23 23 22 21 19 17 15 15 15 15 16 15 14 14 13 13 13 12 12 11 11 11 12 13 14 13 11 8 7 8 12 14 14 13 12 9 8 7 7 8
22 23 24 25 26 25 24 24 24 25 26 27 28 28 27 27 26 26 26 25 25 24 24 23 23 23 22 22 22 22 22 22 21 20 18 15 14 14 15 15 14 14 13 13 14 13 13 12 12 11 11 11 13 14 13 11 9 8 8 11 14 15 14 13 10 8 6 6 7
22 23 25 25 25 24 24 24 25 26 27 28 28 28 27 26 26 26 26 25 25 25 24 23 23 23 22 22 21 21 21 21 21 21 19 16 14 14 14 14 14 13 13 13 14 13 12 12 12 11 10 10 12 13 13 11 9 8 8 11 14 15 15 13 10 8 6 5 5
23 24 25 25 24 24 24 25 26 27 27 28 27 27 27 26 26 26 25 25 25 25 24 24 23 23 22 21 20 20 20 20 21 21 21 19 16 14 13 14 13 13 13 13 13 12 11 11 11 10 9 9 10 11 12 11 9 8 9 11 13 15 15 13 11 8 6 5 7
23 24 24 24 24 24 24 25 26 27 27 27 27 27 26 26 26 25 25 25 25 25 24 24 23 22 21 20 20 20 20 20 21 21 21 20 18 15 14 13 14 13 13 13 12 12 11 11 11 11 10 9 9 9 10 10 9 8 9 12 14 15 15 13 10 7 6 6 8
23 24 24 24 24 24 25 26 26 27 27 27 26 26 26 26 26 25 25 25 25 25 24 24 23 21 20 20 20 20 20 20 21 21 21 20 19 17 15 14 14 13 13 12 12 11 11 11 11 11 10 10 9 9 10 10 10 9 10 13 15 17 16 14 10 7 6 8 9
23 23 23 23 24 24 25 25 26 26 26 26 26 26 26 26 26 25 25 25 25 25 24 24 22 21 20 20 21 21 21 21 21 21 20 20 19 18 16 15 14 14 13 12 12 11 11 11 11 11 11 11 10 10 11 12 11 11 11 14 16 18 17 14 10 7 7 9 10
23 23 23 23 23 24 24 25 25 25 26 26 26 26 26 26 26 25 25 24 24 24 24 24 23 21 21 21 21 21 21 21 21 21 20 19 19 18 17 16 15 14 13 12 11 11 11 10 11 12 12 12 12 12 12 13 13 12 12 15 17 18 17 13 10 7 8 10 11
23 22 22 23 23 24 24 24 24 25 25 25 25 26 26 26 25 25 24 24 24 24 24 24 23 23 22 22 22 21 21 21 20 20 20 19 19 18 18 17 16 15 13 12 11 11 11 11 11 12 12 12 12 12 12 13 14 13 13 15 18 18 17 14 11 8 8 11 12
22 22 22 22 23 23 24 24 24 24 25 25 26 26 26 25 25 24 24 24 25 25 25 24 24 24 23 23 22 21 21 21 21 20 20 19 18 19 19 18 16 15 13 12 11 11 11 11 11 12 13 12 12 11 11 12 14 14 13 14 17 18 17 14 12 9 9 12 13
21 21 22 22 23 23 23 23 23 24 24 25 26 26 26 25 25 24 24 24 25 25 25 25 24 24 24 23 22 22 21 21 20 20 19 19 19 20 20 19 17 15 13 12 11 11 10 11 11 13 13 13 12 10 10 11 13 14 13 14 16 18 17 15 13 11 10 12 15
21 22 22 22 23 23 23 23 23 24 24 25 26 25 25 25 25 25 25 25 25 25 25 24 24 23 23 22 22 22 21 20 20 19 19 20 20 21 20 19 17 15 12 11 11 11 10 10 11 12 13 13 12 11 9 10 11 12 13 14 16 17 18 17 15 13 12 13 16
22 22 23 23 22 22 23 23 23 24 24 25 25 25 25 25 25 25 25 25 25 24 24 24 23 23 22 21 21 21 20 20 19 20 20 21 21 21 20 19 18 15 13 12 11 11 10 10 11 12 13 13 13 12 10 9 10 12 13 14 16 18 19 19 17 14 12 12 16
22 23 23 23 23 22 23 23 24 24 25 25 26 26 26 25 25 25 25 25 25 24 24 23 22 22 21 20 20 20 20 20 20 20 20 21 21 20 20 19 19 16 14 12 12 12 11 10 11 11 12 13 13 13 11 9 10 11 13 15 17 19 20 19 17 14 11 12 16
22 23 23 23 23 23 23 23 24 24 25 26 26 26 26 26 26 26 25 25 24 24 23 22 21 21 20 19 19 19 20 20 20 20 20 20 20 20 20 20 20 18 15 13 12 12 11 11 11 11 12 13 14 13 12 10 10 11 13 15 18 20 21 19 16 13 11 12 16
23 23 23 23 23 23 23 23 24 25 25 26 26 26 27 27 26 26 25 24 23 22 22 21 20 20 19 20 20 21 21 21 21 21 21 20 20 20 20 20 20 19 16 13 12 11 11 11 11 11 12 13 14 14 12 11 11 12 14 16 19 20 20 18 15 12 11 13 17
23 22 22 22 23 23 23 24 24 25 26 27 27 27 27 26 26 25 24 22 20 20 20 20 20 20 20 21 21 22 22 22 21 21 21 20 20 20 20 20 21 19 17 14 12 11 11 11 11 11 12 13 14 14 13 12 11 13 16 18 20 21 20 17 15 13 12 12 16
22 22 22 22 23 23 24 24 25 25 26 27 27 27 27 26 25 24 22 19 18 19 20 20 21 21 22 22 22 22 22 22 22 21 20 21 20 20 20 20 20 20 18 15 13 12 12 12 11 12 13 14 15 15 14 12 12 14 17 19 21 21 20 17 15 14 13 12 15
22 22 22 22 22 23 24 25 26 26 26 26 27 26 26 25 24 22 20 18 18 19 20 21 22 23 23 22 22 23 23 23 23 22 21 21 21 20 20 20 20 20 18 16 14 13 12 12 12 12 13 14 15 15 14 13 13 15 18 20 21 22 20 18 17 15 14 13 14
22 22 22 22 23 23 24 25 26 27 26 26 26 25 24 23 21 19 19 18 19 20 21 22 23 23 23 23 22 23 23 24 24 23 22 22 21 21 20 20 21 20 19 16 14 13 12 12 12 12 14 15 16 15 14 13 14 16 18 19 21 22 21 20 18 17 16 14 14
Wind_Direction
3 1 359 356 352 348 345 343 340 338 337 336 336 337 338 336 333 332 333 334 334 333 334 335 336 338 340 342 341 335 326 315 307 298 291 288 293 294 294 295 300 306 308 295 272 264 268 277 288 294 296 295 295 294 293 289 281 277 279 281 279 277 275 271 264 258 254 253 257
1 0 359 357 355 352 349 345 342 340 338 337 336 337 338 337 335 333 333 334 336 337 337 338 340 341 343 344 344 341 334 324 314 305 296 287 284 284 285 285 288 295 302 307 305 297 288 284 288 292 293 292 291 293 294 291 285 278 275 272 269 268 266 261 257 252 251 256 264
359 359 359 358 356 354 351 346 343 342 340 339 337 337 338 338 336 335 334 336 339 341 341 341 342 343 344 344 345 343 340 332 322 313 304 295 286 282 281 280 283 288 294 299 303 303 299 293 291 292 292 291 290 292 292 289 284 277 268 258 252 250 248 246 242 241 247 261 270
359 358 357 356 355 354 351 347 345 344 342 340 338 337 336 337 337 336 337 339 342 343 344 344 343 343 343 343 343 342 340 336 328 320 311 303 294 288 285 283 284 286 290 294 298 300 300 299 297 295 292 291 291 292 292 288 279 269 257 243 232 228 227 228 229 236 252 269 270
357 357 356 355 355 354 353 350 348 346 344 343 340 337 336 335 335 337 338 340 341 343 344 345 344 343 342 341 340 339 338 335 330 324 316 307 299 294 291 288 286 285 286 288 292 295 298 299 297 293 291 290 290 291 290 286 274 262 250 234 220 213 212 213 220 239 261 274 270
354 355 355 355 355 354 353 352 350 349 347 345 342 339 336 335 334 334 335 337 339 341 343 343 343 343 342 340 338 336 334 332 329 325 319 311 304 298 294 291 289 287 286 287 289 291 292 292 290 288 287 287 289 290 290 285 269 255 246 235 221 212 209 216 237 262 275 274 267
352 353 353 354 354 354 353 352 352 351 350 348 345 342 339 336 334 332 332 334 337 339 341 341 342 343 342 340 338 334 332 329 327 324 319 313 307 301 296 291 287 285 285 285 286 287 287 287 286 285 284 284 287 290 291 285 266 251 243 240 239 241 247 260 275 285 283 274 265
352 352 353 353 354 353 352 352 352 351 350 348 346 344 342 339 336 333 332 332 333 336 338 339 340 341 340 339 336 334 331 328 326 323 319 314 310 306 302 295 288 283 280 280 282 286 288 289 288 286 284 282 284 289 291 283 263 247 240 241 247 256 263 271 278 281 278 268 260
350 351 352 353 353 353 352 351 351 351 349 348 347 346 345 342 340 337 335 332 331 332 335 337 338 339 338 337 335 333 330 327 324 321 319 315 311 309 307 305 300 293 287 283 283 287 292 293 292 289 285 281 281 286 288 279 258 243 238 240 245 251 256 260 263 267 265 259 253
348 349 350 350 351 351 351 350 351 351 349 348 347 347 346 344 343 341 338 333 331 330 332 334 337 337 337 336 334 332 329 326 323 320 319 317 313 308 305 305 305 304 301 296 293 292 293 292 291 289 285 280 278 282 284 278 257 242 237 239 240 239 240 241 244 250 255 252 249
346 347 347 348 348 349 349 348 349 349 349 348 347 347 346 345 344 342 339 335 332 329 329 332 335 336 337 336 334 332 329 326 322 319 318 318 314 307 300 297 298 301 303 302 298 293 290 287 286 285 283 279 277 279 284 283 265 245 234 232 227 222 218 220 225 238 252 251 246
344 345 345 346 347 347 347 346 346 347 347 347 346 346 345 344 343 341 339 336 332 329 328 330 332 334 336 336 335 332 329 326 322 318 317 317 315 309 300 294 293 297 300 301 298 293 287 282 280 279 279 277 275 277 284 289 277 251 229 218 209 202 200 204 212 235 260 258 248
343 343 343 344 345 345 344 344 344 344 345 345 345 345 343 342 341 339 337 335 332 330 328 328 329 331 334 336 335 333 330 327 322 318 316 315 315 311 305 298 297 301 305 305 303 297 289 281 275 273 272 273 272 274 282 291 285 255 225 208 200 198 202 210 220 237 256 258 246
341 340 340 341 342 343 342 342 341 342 343 343 344 343 342 340 339 338 336 334 332 330 328 327 327 328 331 334 335 334 331 327 323 319 316 314 314 312 308 304 304 306 309 310 309 305 297 285 274 267 265 266 267 270 277 288 286 261 231 212 206 208 215 222 228 234 242 247 241
339 338 339 339 340 341 340 340 339 340 340 341 342 342 341 339 338 337 336 334 333 331 330 328 326 326 327 331 334 334 332 328 324 321 318 315 313 310 306 304 304 306 309 310 311 309 304 294 280 267 260 260 262 266 271 280 284 268 243 225 219 219 222 222 224 225 229 236 236
336 336 337 337 338 339 339 338 337 337 338 339 340 340 340 338 337 337 336 334 333 332 331 329 326 324 325 328 332 334 333 329 326 322 319 316 313 308 304 301 301 304 308 309 309 306 303 299 289 275 263 258 259 261 264 273 282 273 252 235 227 224 221 218 217 218 222 229 233
334 334 335 336 337 337 337 336 336 335 336 337 338 338 338 337 337 336 335 334 333 332 331 329 327 324 324 325 330 333 333 330 326 323 319 316 313 308 303 299 299 303 307 308 306 301 296 292 288 280 270 262 259 257 259 266 279 274 254 236 227 221 216 211 210 213 219 226 231
332 332 333 335 336 336 335 334 334 334 334 335 336 336 336 337 336 336 335 335 334 332 330 329 328 325 324 324 328 331 332 330 327 324 320 316 312 308 303 298 298 301 305 307 305 299 291 285 280 276 271 264 258 255 255 260 273 272 252 233 223 216 209 204 208 214 219 225 230
330 330 331 333 334 334 333 332 332 332 333 333 334 335 335 336 336 336 335 335 334 332 330 328 327 326 325 324 326 329 331 331 329 325 322 318 313 309 304 299 297 299 303 306 304 298 290 281 276 271 266 261 256 254 253 254 265 267 248 228 218 210 204 203 211 218 223 226 231
327 328 330 332 332 332 331 330 330 330 331 332 333 333 334 335 336 336 335 334 333 332 331 328 327 327 326 325 325 327 330 332 331 328 325 322 317 312 307 301 296 296 300 304 303 297 288 281 275 269 264 259 256 254 252 251 258 261 245 225 214 207 203 205 212 219 224 228 233
325 326 328 330 331 330 329 328 328 329 329 330 331 332 333 334 335 335 334 333 333 333 331 330 328 327 326 325 324 325 328 332 333 331 328 325 320 315 310 304 298 295 298 302 301 295 286 278 273 268 263 259 256 254 252 249 255 260 244 223 212 207 204 205 209 215 223 229 237
322 324 327 328 329 328 327 327 327 327 328 329 330 331 332 332 333 333 333 333 333 333 331 330 329 327 325 324 323 324 326 330 332 332 329 325 320 317 313 307 300 295 296 299 300 294 284 273 268 263 260 258 255 253 251 249 254 259 245 222 211 206 203 202 205 212 224 235 243
320 323 325 327 327 327 326 325 325 326 327 328 329 330 331 331 331 331 332 332 333 332 331 330 328 327 325 324 323 323 324 327 329 331 330 325 320 316 314 310 302 295 294 297 299 295 285 272 264 259 256 253 251 250 250 248 252 256 244 222 210 204 201 199 200 208 223 238 239
319 322 325 326 326 326 325 324 324 325 326 327 328 329 329 330 330 330 330 331 332 332 331 329 328 327 326 324 323 322 322 323 325 328 329 327 321 316 314 312 304 297 295 297 298 294 286 273 264 260 256 249 246 246 247 247 249 252 241 220 207 200 197 195 196 206 222 233 217
319 322 324 325 325 324 323 323 324 324 325 326 327 328 328 328 328 328 329 329 330 330 330 329 327 327 325 323 322 321 321 322 323 325 327 328 324 319 314 312 307 302 298 298 296 291 282 271 263 260 257 249 244 244 245 245 246 246 236 219 206 197 192 190 193 206 221 216 196
320 323 324 325 324 323 322 322 322 323 323 324 326 327 327 327 327 327 327 327 328 328 328 328 327 326 324 322 321 321 321 321 322 323 325 326 325 322 316 312 309 305 300 298 295 289 280 269 260 256 252 247 243 243 245 245 244 240 229 217 205 195 188 186 190 203 213 198 191
321 323 324 324 323 321 320 320 321 321 322 324 325 325 326 326 325 325 325 325 326 327 327 327 326 324 322 321 321 320 320 320 321 322 324 324 324 322 318 313 309 306 302 297 294 289 282 271 259 250 245 243 244 245 245 244 243 238 227 214 204 195 189 185 189 198 199 188 190
322 323 323 322 321 319 319 319 319 320 321 323 323 324 324 324 324 324 324 324 325 325 326 326 325 323 322 321 320 320 319 320 320 321 322 323 322 320 318 314 310 306 301 295 292 288 283 273 259 248 242 243 248 250 247 242 242 238 226 210 200 193 189 188 192 197 193 184 188
321 322 321 320 319 318 318 318 318 319 320 321 322 322 323 323 322 322 322 323 323 324 324 324 324 323 321 319 319 319 319 319 320 320 320 320 320 320 318 315 311 306 301 295 290 287 282 274 260 250 246 248 254 255 248 240 237 233 222 205 195 191 189 190 196 200 193 185 186
320 320 320 318 317 317 317 317 317 318 319 320 321 322 322 322 321 321 321 321 321 321 322 322 322 320 319 318 318 318 318 318 319 319 318 318 318 317 316 314 311 306 300 294 289 286 281 273 258 250 249 252 258 258 249 237 231 226 217 202 193 190 190 192 198 200 193 185 184
319 319 318 317 316 315 315 315 316 316 318 319 320 321 321 320 320 319 319 319 319 320 321 321 321 320 320 320 319 318 317 318 318 317 316 316 315 315 315 313 311 306 299 293 287 283 279 271 259 251 249 253 260 259 248 234 226 223 217 205 196 192 192 194 200 202 195 186 182
317 318 317 316 315 314 314 314 315 315 317 318 319 319 319 318 317 317 317 317 317 318 319 320 320 320 321 320 320 318 317 316 315 315 314 314 313 313 313 312 311 306 299 292 286 281 276 270 261 253 250 252 259 260 248 232 225 223 221 214 204 198 196 197 203 205 198 188 182
317 317 317 316 314 313 313 313 314 315 316 317 318 318 317 316 316 315 315 316 316 316 317 318 318 318 318 318 317 316 316 314 313 312 312 312 312 312 311 310 309 305 299 291 285 279 274 269 262 255 251 250 255 258 251 233 225 223 222 219 212 205 202 202 205 205 199 190 184
317 317 316 315 313 312 312 312 313 314 315 316 316 316 316 315 314 314 314 314 314 314 315 315 316 316 315 315 313 313 312 311 311 311 310 311 311 310 308 307 306 304 299 291 284 277 272 267 261 254 248 245 249 254 253 239 225 219 220 220 215 209 205 204 204 203 197 190 186
317 316 315 314 312 311 311 311 312 313 314 315 315 315 314 314 313 312 312 312 312 312 312 313 314 314 313 312 310 310 309 309 309 309 309 309 309 307 305 304 305 304 299 291 284 277 271 264 258 252 246 245 247 251 253 248 230 218 216 218 214 208 204 201 200 198 194 190 188
316 315 314 312 311 310 310 311 311 312 313 313 313 313 313 312 311 311 311 311 311 310 310 312 313 312 311 310 309 308 308 308 308 308 307 307 306 304 303 302 304 304 300 292 284 276 270 263 255 249 245 245 245 247 249 250 234 220 214 213 209 204 199 196 195 193 190 187 188
315 314 313 311 310 309 309 310 311 311 312 312 311 311 311 310 310 309 310 310 309 308 308 309 310 309 309 309 308 307 306 306 306 305 305 304 303 302 301 300 301 302 301 294 285 276 269 263 253 245 240 240 241 243 245 244 231 217 210 207 203 200 196 193 191 189 187 185 187
314 313 311 309 308 308 308 309 309 310 310 310 310 309 309 309 308 308 309 308 306 305 305 306 307 307 307 307 306 305 304 304 304 303 302 301 301 300 299 298 298 299 299 294 286 276 268 263 252 241 235 234 235 238 240 238 225 212 205 202 199 196 193 191 189 187 186 186 188
312 311 309 308 307 307 307 307 308 308 308 308 308 308 307 307 306 306 306 305 303 302 303 304 305 305 306 306 306 304 303 303 303 301 300 299 298 298 296 294 294 295 295 291 285 276 269 263 252 240 233 230 231 234 237 234 221 209 202 198 195 192 191 190 188 185 185 187 189
310 309 308 307 306 306 306 306 306 306 306 306 306 306 305 305 304 304 303 302 301 301 302 302 303 304 305 305 305 303 302 302 302 301 299 297 297 296 294 292 291 291 291 288 281 273 268 262 251 239 231 228 228 231 233 230 219 207 199 193 190 188 188 189 187 184 183 185 189
308 307 306 305 305 305 305 305 305 305 305 305 304 304 303 303 302 302 301 301 301 301 301 301 302 303 304 304 303 302 301 301 300 300 299 298 296 295 293 291 290 290 289 285 277 269 264 258 249 237 230 227 227 230 231 227 215 204 195 190 187 185 185 185 185 183 182 182 187
Height
794 793 792 791 790 789 788 787 786 785 784 783 782 780 779 778 777 776 775 774 773 771 770 769 768 766 765 764 763 762 762 761 761 760 760 759 759 758 758 758 758 758 757 757 756 756 756 756 756 756 755 755 755 755 754 754 754 754 754 754 754 754 754 755 755 755 755 755 755
794 793 792 791 790 789 788 787 786 785 784 783 782 780 779 778 777 776 775 774 773 771 770 768 767 766 764 763 763 762 761 760 760 759 759 758 758 758 758 758 758 757 757 756 756 756 755 755 755 755 755 755 754 754 754 754 754 753 753 753 753 754 754 754 754 754 754 754 754
793 793 791 790 789 788 787 786 785 784 783 782 781 780 779 778 777 776 775 773 772 771 769 768 767 765 764 763 762 761 761 760 759 759 758 758 758 758 757 757 757 756 756 756 755 755 755 755 755 755 754 754 754 754 753 753 753 753 753 753 753 753 753 754 754 754 754 754 754
793 792 791 790 789 788 787 786 785 783 783 782 781 779 778 778 777 775 774 773 771 770 769 768 766 765 764 763 762 761 760 759 759 758 758 757 757 757 757 756 756 756 756 755 755 755 755 755 755 754 754 754 753 753 753 753 753 753 753 752 752 752 753 753 753 753 753 753 753
793 792 791 790 789 788 787 786 784 783 782 781 780 779 778 777 776 775 773 772 771 770 768 768 766 765 764 763 762 761 760 759 758 758 757 757 757 756 756 756 755 755 755 755 755 755 754 754 754 754 753 753 753 753 752 752 752 752 752 752 751 752 752 752 752 752 753 753 753
793 791 790 789 788 787 786 785 784 783 782 781 779 778 778 777 775 774 773 772 770 769 768 767 766 765 763 762 761 760 760 759 758 757 757 756 756 756 755 755 755 755 754 754 754 754 754 754 753 753 753 752 752 752 751 751 751 751 751 751 751 751 751 751 752 752 752 752 752
792 791 790 789 788 787 786 784 783 782 781 780 779 778 777 776 775 774 773 771 770 768 767 766 765 764 763 762 761 760 759 758 758 757 756 756 755 755 755 754 754 754 754 754 754 753 753 753 753 752 752 751 751 751 750 750 750 750 750 750 751 751 751 751 751 751 752 752 751
792 791 790 789 788 786 785 784 783 782 780 779 778 778 777 776 774 773 772 771 769 768 767 766 765 764 763 762 761 760 759 758 757 756 756 755 754 754 754 753 753 753 753 753 753 752 752 752 751 751 751 750 750 750 750 749 749 749 749 749 750 750 750 750 751 751 751 751 751
791 790 789 788 787 786 785 783 783 781 780 779 778 777 776 775 774 773 772 770 769 768 766 765 764 763 762 761 760 759 758 757 756 755 755 754 754 753 753 753 752 752 752 752 751 751 751 751 750 750 750 749 749 749 749 749 748 748 748 748 749 749 749 750 750 750 751 751 750
791 789 788 787 786 785 784 783 782 781 780 778 778 777 776 775 773 772 771 770 768 767 766 764 763 762 761 760 759 758 757 756 755 754 754 753 753 753 752 752 752 751 751 751 750 750 750 749 749 749 748 748 748 748 748 748 748 747 747 747 748 748 748 749 749 750 750 750 750
790 789 788 787 786 785 783 782 781 780 779 778 777 776 775 774 773 772 770 769 768 766 765 764 763 761 760 759 758 757 756 755 755 754 753 752 752 752 752 751 751 750 750 750 749 749 749 748 748 748 747 747 747 747 747 747 747 746 746 746 746 747 747 748 748 749 749 749 749
789 788 787 786 785 784 783 782 780 779 778 777 776 775 774 773 772 771 769 768 767 766 764 763 762 761 759 758 757 756 755 754 753 753 752 751 751 750 750 750 750 749 749 748 748 748 747 747 746 746 746 746 746 746 746 745 745 745 745 745 745 746 746 747 747 748 748 748 748
789 788 787 785 784 783 782 781 780 779 778 777 776 774 773 772 771 770 768 767 766 764 763 762 761 760 759 758 756 755 754 753 753 752 751 750 750 749 749 749 748 748 748 747 747 746 745 745 744 744 744 744 744 745 745 744 744 744 744 744 744 745 745 746 746 747 748 748 748
788 787 786 785 783 783 781 780 779 778 777 776 775 774 773 771 770 769 768 766 765 763 762 761 760 759 758 757 756 754 753 753 752 751 750 749 749 748 748 748 748 747 746 746 745 744 743 743 743 743 743 743 743 743 743 743 743 744 743 743 743 744 744 745 746 746 747 747 747
787 786 785 784 783 782 780 779 778 777 776 775 774 773 772 770 769 768 767 765 764 763 761 760 759 758 757 756 755 754 753 751 750 749 749 748 748 747 747 747 746 746 745 744 743 743 742 742 741 741 741 742 742 743 743 743 743 743 743 743 743 743 743 744 745 745 746 746 747
786 785 784 783 782 781 780 778 777 776 775 774 773 772 771 769 768 767 766 764 763 762 760 759 758 757 756 755 754 753 752 750 749 748 748 747 747 746 746 745 745 745 744 743 743 742 741 741 741 740 740 741 741 741 742 742 742 742 742 742 742 743 743 743 744 745 745 746 746
785 784 783 782 781 780 779 778 776 775 774 773 772 771 770 768 767 766 765 763 762 761 759 758 758 756 755 754 753 752 751 749 748 748 747 746 746 745 745 744 744 744 743 743 742 741 741 740 740 740 740 740 740 741 741 741 741 741 741 741 742 742 742 743 743 744 744 745 745
784 783 783 781 780 779 778 777 776 774 773 772 771 770 769 768 766 765 764 763 761 760 758 757 756 756 754 753 752 751 750 749 748 747 746 745 745 744 744 744 743 743 742 742 741 740 740 739 739 739 739 740 740 740 740 740 740 740 741 741 741 741 742 742 743 743 744 744 744
783 783 782 780 779 778 777 776 775 774 773 771 770 769 768 767 765 764 763 761 760 759 758 757 755 754 753 753 751 750 749 748 747 746 745 744 744 743 743 743 742 742 741 741 740 739 739 739 738 738 739 739 739 739 739 739 739 740 740 740 740 740 741 742 742 743 743 744 744
783 782 781 780 778 777 776 775 774 773 772 770 769 768 767 766 764 763 762 760 759 758 757 756 754 753 752 751 750 749 748 747 746 745 744 743 743 743 742 742 741 741 740 740 739 739 738 738 738 738 738 738 738 738 738 738 739 739 739 739 739 740 740 741 742 742 743 743 743
782 781 780 779 778 776 775 774 773 772 771 769 768 767 766 765 763 762 761 760 758 757 756 755 754 753 751 750 749 748 747 746 745 744 743 742 742 741 741 740 740 739 739 739 738 738 738 737 737 737 737 737 737 737 738 738 738 738 738 738 739 739 740 740 741 741 742 742 743
781 780 779 778 777 775 774 773 772 771 770 768 767 766 765 764 763 761 760 759 758 756 755 754 753 752 751 750 748 748 746 745 744 743 742 742 741 740 740 739 739 738 738 738 737 737 737 736 736 736 736 736 736 736 737 737 737 738 738 738 738 739 739 740 740 741 741 742 742
780 779 778 777 776 774 773 772 771 770 768 767 766 765 764 763 761 760 759 758 757 755 754 753 752 751 750 749 748 747 746 744 743 743 742 741 740 739 739 738 738 738 737 737 736 736 736 735 735 735 735 735 735 735 736 736 737 737 737 738 738 738 739 739 740 740 741 741 741
779 778 777 776 774 773 772 771 770 768 767 766 765 764 763 761 760 759 758 757 756 754 753 752 751 750 749 748 747 746 745 744 743 742 741 740 739 738 738 738 737 737 736 736 735 735 734 734 734 734 734 734 734 735 735 735 736 736 737 737 737 738 738 739 739 740 740 740 741
778 777 776 774 773 772 771 770 768 767 766 765 764 763 761 760 759 758 757 755 754 753 752 751 750 749 748 747 746 745 744 743 742 741 740 739 738 738 737 737 736 736 735 735 734 734 734 734 733 733 733 733 734 734 734 735 735 736 736 736 737 737 738 738 739 739 739 740 740
777 775 774 773 772 771 770 769 768 766 765 764 763 762 760 759 758 757 756 754 753 752 751 750 749 748 747 746 745 744 743 743 741 740 739 738 737 737 736 736 735 735 734 734 734 733 733 733 733 733 733 733 733 733 734 734 734 735 735 736 736 737 737 738 738 738 739 739 740
775 774 773 772 771 770 769 768 767 765 764 763 762 760 759 758 757 756 755 753 752 751 750 749 748 747 746 745 744 743 742 741 741 739 738 738 737 736 735 735 734 734 733 733 733 733 732 732 732 732 732 733 733 733 733 733 734 734 735 735 735 736 736 737 738 738 738 739 740
774 773 772 771 770 769 768 767 765 764 763 762 761 759 758 757 756 755 754 753 751 750 749 748 747 746 745 744 743 742 741 740 740 739 738 737 736 735 734 734 733 733 733 733 732 732 731 731 731 731 732 732 732 732 733 733 733 733 734 734 735 735 736 736 737 738 738 739 739
773 772 771 770 769 768 767 765 764 763 762 761 760 758 757 756 755 754 753 752 750 749 748 747 746 745 744 743 742 741 740 739 739 738 737 736 735 734 734 733 733 732 732 732 731 731 731 731 730 730 731 731 731 732 732 732 732 733 733 734 734 734 735 736 736 737 738 738 739
773 771 770 769 768 767 766 764 763 762 761 760 759 758 756 755 754 753 752 751 749 748 748 747 746 744 743 743 742 741 739 739 738 737 736 735 734 733 733 732 732 731 731 731 730 730 730 730 730 730 730 730 730 731 731 731 732 732 733 733 733 734 734 735 736 737 738 738 739
772 771 769 768 767 766 764 763 762 761 760 759 758 756 755 754 753 752 751 750 748 748 747 746 745 743 743 742 741 740 739 738 737 736 735 734 733 733 732 731 731 730 730 730 729 729 729 729 729 729 729 729 729 730 730 730 731 731 732 733 733 733 734 734 735 736 737 738 739
771 770 768 768 766 765 763 762 761 760 759 758 757 755 754 753 752 751 750 749 748 747 745 744 743 742 741 740 739 739 738 737 736 735 734 734 733 732 731 730 730 729 729 729 728 728 728 728 728 728 728 728 728 729 729 729 730 731 731 732 733 733 733 734 735 735 737 738 738
770 769 768 767 765 764 763 761 760 759 758 757 756 754 753 752 751 750 749 748 747 746 744 743 743 742 740 739 738 738 737 736 735 734 734 733 732 731 730 730 729 728 728 728 728 728 728 728 728 727 727 727 728 728 728 729 729 730 731 731 732 733 733 733 734 735 736 737 738
769 768 767 765 764 763 761 760 759 758 757 755 754 753 752 751 750 748 748 747 746 745 743 743 742 741 740 739 738 737 736 735 734 733 733 732 731 730 729 729 728 728 727 727 727 727 727 727 727 727 727 727 727 727 728 728 728 729 730 730 731 732 733 733 733 734 736 737 738
768 767 765 764 763 762 760 759 758 757 756 754 753 752 751 750 749 748 747 745 744 743 742 741 741 740 739 738 737 736 735 734 733 733 732 731 730 729 728 728 727 726 726 726 726 726 726 725 726 726 726 726 726 726 727 727 728 728 729 729 730 731 732 732 733 734 735 736 737
767 766 764 763 762 761 759 758 757 756 754 753 752 751 749 748 748 746 745 744 743 742 741 740 739 738 738 737 736 735 734 733 732 731 730 730 729 728 727 726 726 725 725 724 724 724 724 724 724 725 725 725 725 725 726 726 727 727 728 729 729 730 731 732 733 734 735 736 737
766 765 764 762 761 759 758 757 756 755 753 752 751 750 748 747 746 745 744 743 742 741 740 739 738 738 737 736 735 734 733 732 731 730 729 728 728 727 726 725 724 724 723 723 723 723 723 723 723 724 724 724 724 725 725 726 726 727 727 728 728 729 730 731 732 733 734 735 736
765 764 763 761 760 758 757 756 755 753 752 751 749 748 747 746 745 743 743 742 741 740 739 738 737 736 736 735 733 732 731 731 730 729 728 727 727 726 725 724 723 722 722 722 722 722 722 722 722 723 723 723 723 724 724 725 725 726 726 727 728 729 730 731 732 733 733 734 735
764 763 762 761 759 758 756 755 754 753 751 750 748 747 746 745 743 743 742 741 740 739 738 737 736 735 734 733 732 731 729 729 728 728 727 726 725 724 724 723 722 721 721 720 720 720 721 721 721 721 722 722 723 723 724 724 725 725 726 726 727 728 729 730 731 732 733 734 735
763 762 761 759 758 757 755 754 753 751 750 749 747 746 744 743 742 741 741 740 739 738 737 736 735 734 733 732 731 729 728 727 726 726 725 724 723 723 722 722 721 720 719 719 719 719 719 720 720 720 721 721 722 722 723 723 724 724 725 726 726 727 728 729 730 731 732 733 734
762 761 759 758 757 756 754 753 751 750 749 748 746 745 743 742 741 740 740 739 738 737 736 735 733 733 732 731 730 728 727 725 724 724 723 723 722 721 721 720 719 718 718 718 718 718 718 718 718 719 719 720 721 721 722 722 723 723 724 725 725 726 727 728 730 731 732 733 734